ONEWEB-0597, 54663

Orbit data source: Space-Track

ONEWEB-0597, 54663 is a payload satellite owned by One Web (NAA) (UK) in LEO that was launched on Thu, 08 Dec 2022 UTC via an FALCON 9 launch vehicle from the Air Force Eastern Test Range (AFETR). Payload-class satellites include a variety of spacecraft equipped with specific instruments for various scientific and technological missions. These include communications satellites like Starlink; space stations such as the ISS; scientific satellites like the Hubble; Earth observation satellites from companies like Planet Labs, Umbra, and HawkEye 360; GPS; miniature CubeSats for education and research; and military/defense satellites.

Loading next visibility...
Identifier
54663, 2022-166X
Orbit
LEO
Country
Flag of UKUK
Related business
Manufacturer
One Web
Mission
Operational Commercial Communications
Bus & Motor
ARROW, Unknown motor
Mass
148 kg wet, ~140 kg dry
Launch date (UTC)
2022-12-08 (4 years ago)
Launch vehicle
FALCON 9
Launch site
Air Force Eastern Test Range (AFETR)
Object type
Payload
Rocket body
Debris
Shape & HBR
Trap Box + 2 Pan, 6.7 m
Radar Cross Section
3.464 m², Large (>1 m²)

Expand to show TLE details & history
Last TLE update: 2 days ago

TLE from 2 days ago
0 ONEWEB-0597
1 54663U 22166X   26171.46690955  .00000055  00000-0  10257-3 0  9990
2 54663  87.9252 243.3351 0002010  95.1603 264.9760 13.21827752171974
Epoch: 2026-06-20T11:12Z
TLE epoch observation values (Epoch: 2026-06-20T11:12:20.985Z)
Latitude
-0.00004°
Longitude
166.56654°
Altitude
1,180.785 km
Speed
7.263 km/s
True Right ascension
16h 13m 20s
True Declination
0° 00' 00"
Sunlit
Object was in full shadow at epoch
Visualization orbit readout
Latitude
Unknown
Longitude
Unknown
Altitude
Unknown
Speed
Unknown
Apparent Right ascension
Unknown
Apparent Declination
Unknown
Sunlit
N/A
Visualization observer readout
Local Sidereal Time
21:30:12
Azimuth
Unknown
Elevation
Unknown
Doppler factor
Unknown
Orbital elements
Apogee altitude
1,176.367 km
Perigee altitude
1,173.331 km
Semi-major axis
7,552.986 km
Eccentricity
0.0002
Inclination
87.9252°
RAAN
243.3351°
Arg. of periapsis
95.1603°
True anomaly
264.95306°
Mean anomaly
264.976°
Eccentric anomaly
264.96453°
Mean motion
3.30647 °/min
Orbital period
108.88 mins
BSTAR
0.00010257
Loading maneuver chart data...
Computing Atmospheric mass density...
Loading historical data...
Loading historical data...
Loading historical data...
Loading historical data...
Loading historical data...
Loading historical data...
Loading historical data...

Documentation

Showing up to 5 results
|